Time,TemperatureF,DewpointF,PressureIn,WindDirection,WindDirectionDegrees,WindSpeedMPH,WindSpeedGustMPH,Humidity,HourlyPrecipIn,Conditions,Clouds,dailyrainin,SoftwareType,DateUTC
2013-08-17 00:09:00,66.8,58.0,30.11,SE,140,0.0,4.0,74,0.00,,,0.00,weatherlink.com 1.10,2013-08-17 05:09:00,
2013-08-17 00:24:00,66.7,58.0,30.11,SE,146,0.0,0.0,74,0.00,,,0.00,weatherlink.com 1.10,2013-08-17 05:24:00,
2013-08-17 00:39:00,66.7,58.0,30.11,SE,132,0.0,4.0,74,0.00,,,0.00,weatherlink.com 1.10,2013-08-17 05:39:00,
2013-08-17 00:54:00,66.2,58.0,30.11,SE,141,0.0,5.0,75,0.00,,,0.00,weatherlink.com 1.10,2013-08-17 05:54:00,
2013-08-17 01:09:00,65.7,58.0,30.11,SE,141,0.0,0.0,76,0.00,,,0.00,weatherlink.com 1.10,2013-08-17 06:09:00,
2013-08-17 01:24:00,65.2,58.0,30.11,SE,141,0.0,2.0,77,0.00,,,0.00,weatherlink.com 1.10,2013-08-17 06:24:00,
2013-08-17 01:39:00,64.8,58.0,30.11,SE,141,0.0,0.0,78,0.00,,,0.00,weatherlink.com 1.10,2013-08-17 06:39:00,
2013-08-17 01:54:00,64.8,58.0,30.11,SE,141,0.0,0.0,79,0.00,,,0.00,weatherlink.com 1.10,2013-08-17 06:54:00,
2013-08-17 02:09:00,64.5,59.0,30.11,SE,141,0.0,0.0,81,0.00,,,0.00,weatherlink.com 1.10,2013-08-17 07:09:00,
2013-08-17 02:24:00,64.5,59.0,30.11,SE,141,0.0,3.0,83,0.00,,,0.00,weatherlink.com 1.10,2013-08-17 07:24:00,
2013-08-17 02:39:00,63.6,59.0,30.11,SE,141,2.0,5.0,84,0.00,,,0.00,weatherlink.com 1.10,2013-08-17 07:39:00,
2013-08-17 02:54:00,61.6,58.0,30.11,SE,141,4.0,5.0,88,0.00,,,0.00,weatherlink.com 1.10,2013-08-17 07:54:00,
2013-08-17 03:09:00,61.8,58.0,30.11,SE,141,3.0,4.0,88,0.00,,,0.00,weatherlink.com 1.10,2013-08-17 08:09:00,
2013-08-17 03:24:00,62.1,59.0,30.11,SE,141,2.0,4.0,88,0.00,,,0.00,weatherlink.com 1.10,2013-08-17 08:24:00,
2013-08-17 03:39:00,62.0,58.0,30.11,SE,141,0.0,0.0,87,0.00,,,0.00,weatherlink.com 1.10,2013-08-17 08:39:00,
2013-08-17 03:54:00,61.3,58.0,30.12,SE,141,0.0,0.0,89,0.00,,,0.00,weatherlink.com 1.10,2013-08-17 08:54:00,
2013-08-17 04:09:00,61.5,58.0,30.12,SE,141,0.0,0.0,89,0.00,,,0.00,weatherlink.com 1.10,2013-08-17 09:09:00,
2013-08-17 04:24:00,61.6,58.0,30.12,SE,141,0.0,4.0,89,0.00,,,0.00,weatherlink.com 1.10,2013-08-17 09:24:00,
2013-08-17 04:39:00,61.7,59.0,30.12,SE,141,0.0,0.0,89,0.00,,,0.00,weatherlink.com 1.10,2013-08-17 09:39:00,
2013-08-17 04:54:00,61.9,59.0,30.12,SE,141,3.0,4.0,89,0.00,,,0.00,weatherlink.com 1.10,2013-08-17 09:54:00,
2013-08-17 05:09:00,62.5,59.0,30.12,SE,141,0.0,3.0,88,0.00,,,0.00,weatherlink.com 1.10,2013-08-17 10:09:00,
2013-08-17 05:24:00,62.9,59.0,30.12,SE,141,0.0,4.0,87,0.00,,,0.00,weatherlink.com 1.10,2013-08-17 10:24:00,
2013-08-17 05:40:00,62.3,59.0,30.12,SE,141,2.0,4.0,88,0.00,,,0.00,weatherlink.com 1.10,2013-08-17 10:40:00,
2013-08-17 05:54:00,62.1,59.0,30.11,SE,135,4.0,5.0,88,0.00,,,0.00,weatherlink.com 1.10,2013-08-17 10:54:00,
2013-08-17 06:09:00,62.2,59.0,30.11,SE,135,1.0,4.0,88,0.00,,,0.00,weatherlink.com 1.10,2013-08-17 11:09:00,
2013-08-17 06:24:00,62.3,59.0,30.11,SE,136,0.0,3.0,88,0.00,,,0.00,weatherlink.com 1.10,2013-08-17 11:24:00,
2013-08-17 06:39:00,62.3,59.0,30.12,SE,138,2.0,5.0,88,0.00,,,0.00,weatherlink.com 1.10,2013-08-17 11:39:00,
2013-08-17 06:55:00,62.1,59.0,30.12,SE,127,5.0,7.0,88,0.00,,,0.00,weatherlink.com 1.10,2013-08-17 11:55:00,
2013-08-17 07:10:00,62.0,59.0,30.12,SE,127,3.0,9.0,89,0.00,,,0.00,weatherlink.com 1.10,2013-08-17 12:10:00,
2013-08-17 07:25:00,62.6,59.0,30.12,SE,133,4.0,7.0,87,0.00,,,0.00,weatherlink.com 1.10,2013-08-17 12:25:00,
2013-08-17 07:40:00,63.1,59.0,30.13,SSE,160,0.0,0.0,87,0.00,,,0.00,weatherlink.com 1.10,2013-08-17 12:40:00,
2013-08-17 07:55:00,63.4,59.0,30.13,South,170,1.0,5.0,86,0.00,,,0.00,weatherlink.com 1.10,2013-08-17 12:55:00,
2013-08-17 08:10:00,63.8,60.0,30.13,ESE,104,1.0,6.0,86,0.00,,,0.00,weatherlink.com 1.10,2013-08-17 13:10:00,
2013-08-17 08:25:00,64.3,60.0,30.14,SSE,157,3.0,6.0,85,0.00,,,0.00,weatherlink.com 1.10,2013-08-17 13:25:00,
2013-08-17 08:40:00,65.1,60.0,30.14,SSE,161,0.0,8.0,82,0.00,,,0.00,weatherlink.com 1.10,2013-08-17 13:40:00,
2013-08-17 08:55:00,66.1,61.0,30.14,South,173,1.0,6.0,82,0.00,,,0.00,weatherlink.com 1.10,2013-08-17 13:55:00,
2013-08-17 09:10:00,66.8,60.0,30.14,South,182,3.0,8.0,78,0.00,,,0.00,weatherlink.com 1.10,2013-08-17 14:10:00,
2013-08-17 09:25:00,67.7,60.0,30.14,South,182,4.0,9.0,77,0.00,,,0.00,weatherlink.com 1.10,2013-08-17 14:25:00,
2013-08-17 09:40:00,67.9,60.0,30.14,South,179,3.0,7.0,77,0.00,,,0.00,weatherlink.com 1.10,2013-08-17 14:40:00,
2013-08-17 09:55:00,69.2,61.0,30.14,SSW,198,5.0,7.0,76,0.00,,,0.00,weatherlink.com 1.10,2013-08-17 14:55:00,
2013-08-17 10:10:00,70.6,59.0,30.14,SSE,149,5.0,13.0,67,0.00,,,0.00,weatherlink.com 1.10,2013-08-17 15:10:00,
2013-08-17 10:25:00,71.3,59.0,30.14,SSE,158,4.0,9.0,65,0.00,,,0.00,weatherlink.com 1.10,2013-08-17 15:25:00,
2013-08-17 10:40:00,72.0,58.0,30.13,South,186,7.0,13.0,62,0.00,,,0.00,weatherlink.com 1.10,2013-08-17 15:40:00,
2013-08-17 10:55:00,72.1,58.0,30.14,SE,143,8.0,14.0,61,0.00,,,0.00,weatherlink.com 1.10,2013-08-17 15:55:00,
2013-08-17 11:10:00,72.6,58.0,30.13,South,177,7.0,14.0,60,0.00,,,0.00,weatherlink.com 1.10,2013-08-17 16:10:00,
2013-08-17 11:25:00,73.1,59.0,30.13,SSE,164,12.0,14.0,61,0.00,,,0.00,weatherlink.com 1.10,2013-08-17 16:25:00,
2013-08-17 11:40:00,73.5,57.0,30.13,South,173,6.0,15.0,56,0.00,,,0.00,weatherlink.com 1.10,2013-08-17 16:40:00,
2013-08-17 11:55:00,73.6,57.0,30.12,South,175,7.0,15.0,56,0.00,,,0.00,weatherlink.com 1.10,2013-08-17 16:55:00,
2013-08-17 12:10:00,74.5,59.0,30.12,SSE,161,12.0,13.0,59,0.00,,,0.00,weatherlink.com 1.10,2013-08-17 17:10:00,
2013-08-17 12:25:00,74.8,57.0,30.12,South,169,6.0,13.0,54,0.00,,,0.00,weatherlink.com 1.10,2013-08-17 17:25:00,
2013-08-17 12:40:00,74.9,58.0,30.12,South,179,6.0,12.0,55,0.00,,,0.00,weatherlink.com 1.10,2013-08-17 17:40:00,
2013-08-17 12:55:00,75.1,57.0,30.11,SSE,149,1.0,12.0,53,0.00,,,0.00,weatherlink.com 1.10,2013-08-17 17:55:00,
2013-08-17 13:10:00,76.3,57.0,30.11,SSE,152,7.0,11.0,51,0.00,,,0.00,weatherlink.com 1.10,2013-08-17 18:10:00,
2013-08-17 13:25:00,76.5,59.0,30.11,SSW,202,5.0,11.0,55,0.00,,,0.00,weatherlink.com 1.10,2013-08-17 18:25:00,
2013-08-17 13:40:00,76.4,58.0,30.10,SE,129,7.0,11.0,53,0.00,,,0.00,weatherlink.com 1.10,2013-08-17 18:40:00,
2013-08-17 13:55:00,76.7,58.0,30.10,South,175,8.0,12.0,53,0.00,,,0.00,weatherlink.com 1.10,2013-08-17 18:55:00,
2013-08-17 14:10:00,77.0,59.0,30.09,SSW,202,1.0,11.0,54,0.00,,,0.00,weatherlink.com 1.10,2013-08-17 19:10:00,
2013-08-17 14:25:00,76.4,57.0,30.09,SSE,164,4.0,14.0,51,0.00,,,0.00,weatherlink.com 1.10,2013-08-17 19:25:00,
2013-08-17 14:40:00,76.1,59.0,30.09,SSW,195,7.0,12.0,55,0.00,,,0.00,weatherlink.com 1.10,2013-08-17 19:40:00,
2013-08-17 14:55:00,76.1,59.0,30.08,SE,131,6.0,11.0,55,0.00,,,0.00,weatherlink.com 1.10,2013-08-17 19:55:00,
2013-08-17 15:10:00,76.9,59.0,30.08,South,188,0.0,10.0,55,0.00,,,0.00,weatherlink.com 1.10,2013-08-17 20:10:00,
2013-08-17 15:25:00,77.6,60.0,30.08,ESE,113,8.0,10.0,55,0.00,,,0.00,weatherlink.com 1.10,2013-08-17 20:25:00,
2013-08-17 15:40:00,76.3,59.0,30.07,ESE,113,1.0,13.0,55,0.00,,,0.00,weatherlink.com 1.10,2013-08-17 20:40:00,
2013-08-17 15:55:00,75.4,58.0,30.07,SE,132,1.0,11.0,55,0.00,,,0.00,weatherlink.com 1.10,2013-08-17 20:55:00,
2013-08-17 16:11:00,76.9,59.0,30.07,SSE,151,5.0,11.0,54,0.00,,,0.00,weatherlink.com 1.10,2013-08-17 21:11:00,
2013-08-17 16:26:00,76.4,58.0,30.06,South,169,4.0,10.0,54,0.00,,,0.00,weatherlink.com 1.10,2013-08-17 21:26:00,
2013-08-17 16:41:00,77.3,59.0,30.07,South,172,6.0,8.0,54,0.00,,,0.00,weatherlink.com 1.10,2013-08-17 21:41:00,
2013-08-17 16:56:00,76.2,59.0,30.06,ESE,111,3.0,9.0,55,0.00,,,0.00,weatherlink.com 1.10,2013-08-17 21:56:00,
2013-08-17 17:11:00,76.4,59.0,30.06,ESE,121,4.0,11.0,55,0.00,,,0.00,weatherlink.com 1.10,2013-08-17 22:11:00,
2013-08-17 17:26:00,76.7,59.0,30.06,ESE,123,4.0,8.0,54,0.00,,,0.00,weatherlink.com 1.10,2013-08-17 22:26:00,
2013-08-17 17:41:00,76.7,59.0,30.05,SSE,151,1.0,8.0,55,0.00,,,0.00,weatherlink.com 1.10,2013-08-17 22:41:00,
2013-08-17 17:56:00,76.9,59.0,30.05,ESE,117,1.0,7.0,55,0.00,,,0.00,weatherlink.com 1.10,2013-08-17 22:56:00,
2013-08-17 18:11:00,75.7,59.0,30.05,ESE,107,4.0,11.0,57,0.00,,,0.00,weatherlink.com 1.10,2013-08-17 23:11:00,
2013-08-17 18:26:00,75.4,59.0,30.05,ESE,118,3.0,9.0,58,0.00,,,0.00,weatherlink.com 1.10,2013-08-17 23:26:00,
2013-08-17 18:41:00,74.8,59.0,30.05,SE,128,9.0,11.0,59,0.00,,,0.00,weatherlink.com 1.10,2013-08-17 23:41:00,
2013-08-17 18:56:00,74.5,59.0,30.05,ESE,115,3.0,9.0,59,0.00,,,0.00,weatherlink.com 1.10,2013-08-17 23:56:00,
2013-08-17 19:11:00,74.3,58.0,30.05,SE,127,3.0,7.0,58,0.00,,,0.00,weatherlink.com 1.10,2013-08-18 00:11:00,
2013-08-17 19:26:00,74.0,60.0,30.05,SE,128,2.0,4.0,61,0.00,,,0.00,weatherlink.com 1.10,2013-08-18 00:26:00,
2013-08-17 19:41:00,73.0,59.0,30.05,SE,135,0.0,3.0,61,0.00,,,0.00,weatherlink.com 1.10,2013-08-18 00:41:00,
2013-08-17 19:56:00,72.6,59.0,30.05,SE,135,0.0,4.0,63,0.00,,,0.00,weatherlink.com 1.10,2013-08-18 00:56:00,
2013-08-17 20:11:00,72.0,59.0,30.05,SE,135,2.0,4.0,63,0.00,,,0.00,weatherlink.com 1.10,2013-08-18 01:11:00,
2013-08-17 20:26:00,71.3,58.0,30.05,SE,135,0.0,0.0,64,0.00,,,0.00,weatherlink.com 1.10,2013-08-18 01:26:00,
2013-08-17 20:41:00,70.6,58.0,30.05,SSE,148,0.0,0.0,65,0.00,,,0.00,weatherlink.com 1.10,2013-08-18 01:41:00,
2013-08-17 20:56:00,70.1,57.0,30.05,SSE,149,0.0,0.0,64,0.00,,,0.00,weatherlink.com 1.10,2013-08-18 01:56:00,
2013-08-17 21:11:00,69.9,57.0,30.05,SSE,153,0.0,0.0,63,0.00,,,0.00,weatherlink.com 1.10,2013-08-18 02:11:00,
2013-08-17 21:26:00,69.7,57.0,30.05,SSE,153,0.0,0.0,64,0.00,,,0.00,weatherlink.com 1.10,2013-08-18 02:26:00,
2013-08-17 21:41:00,69.4,57.0,30.06,SSE,153,0.0,0.0,64,0.00,,,0.00,weatherlink.com 1.10,2013-08-18 02:41:00,
2013-08-17 21:56:00,69.4,57.0,30.06,SSE,156,0.0,0.0,64,0.00,,,0.00,weatherlink.com 1.10,2013-08-18 02:56:00,
2013-08-17 22:11:00,69.2,57.0,30.05,SSE,156,0.0,0.0,65,0.00,,,0.00,weatherlink.com 1.10,2013-08-18 03:11:00,
2013-08-17 22:26:00,68.9,57.0,30.06,SSE,156,0.0,0.0,65,0.00,,,0.00,weatherlink.com 1.10,2013-08-18 03:26:00,
2013-08-17 22:41:00,68.6,57.0,30.06,SSE,156,0.0,0.0,66,0.00,,,0.00,weatherlink.com 1.10,2013-08-18 03:41:00,
2013-08-17 22:56:00,68.4,57.0,30.06,SSE,156,0.0,4.0,67,0.00,,,0.00,weatherlink.com 1.10,2013-08-18 03:56:00,
2013-08-17 23:11:00,68.1,57.0,30.06,SSE,157,0.0,5.0,68,0.00,,,0.00,weatherlink.com 1.10,2013-08-18 04:11:00,
2013-08-17 23:26:00,67.7,57.0,30.06,SSE,157,0.0,0.0,68,0.00,,,0.00,weatherlink.com 1.10,2013-08-18 04:26:00,
2013-08-17 23:41:00,67.6,57.0,30.06,SSE,157,0.0,3.0,69,0.00,,,0.00,weatherlink.com 1.10,2013-08-18 04:41:00,
2013-08-17 23:56:00,67.4,57.0,30.06,South,169,0.0,5.0,69,0.00,,,0.00,weatherlink.com 1.10,2013-08-18 04:56:00,